Gage, OK

7:09 AM CDT on August 28, 2016 (GMT -0500)
Gage

Weather History for KGAG - March, 2014

Change the Weather History Date:

Wednesday, March 26, 2014

  Actual Average Record
Temperature  
Mean Temperature 45 °F -  
Max Temperature 54 °F 64 °F 91 °F (1956)
Min Temperature 39 °F 37 °F 9 °F (1955)
Degree Days  
Heating Degree Days 20    
Moisture  
Dew Point 38 °F    
Average Humidity 76    
Maximum Humidity 93    
Minimum Humidity 40    
Precipitation  
Precipitation 0.09 in - - ()
Sea Level Pressure  
Sea Level Pressure 29.76 in    
Wind  
Wind Speed 25 mph (South)    
Max Wind Speed 36 mph    
Max Gust Speed 47 mph    
Visibility 9 miles    
Events Rain    
Averages and records for this station are not official NWS values.
T = Trace of Precipitation, MM = Missing Value Source: NWS Daily Summary

Daily Weather History Graph

Daily Weather History Graph

Search for Another Location

Airport or City:

Trip Planner

Search our weather history database for the weather conditions in past years. The results will help you decide how hot, cold, wet, or windy it might be!

Date:

Astronomy

Mar. 26, 2014 Rise Set
Actual Time 7:33 AM CDT 7:56 PM CDT
Civil Twilight 7:08 AM CDT 8:21 PM CDT
Nautical Twilight 6:37 AM CDT 8:52 PM CDT
Astronomical Twilight 6:07 AM CDT 9:22 PM CDT
Moon 4:36 AM CDT (3/26) 3:43 PM CDT (3/26)
Length of Visible Light 13h 13m
Length of Day
12h 22m
Waning Crescent, 21% of the Moon is Illuminated
Mar 26
Waning Crescent
Mar 30
New
Apr 7
First Quarter
Apr 15
Full
Apr 22
Last Quarter

Hourly Weather History & Observations

Time (CDT) Temp. Windchill Dew Point Humidity Pressure Visibility Wind Dir Wind Speed Gust Speed Precip Events Conditions
12:53 AM 43.0 °F 35.1 °F 21.0 °F 42% 30.06 in 10.0 mi South 17.3 mph - N/A   Clear
1:53 AM 42.1 °F 34.9 °F 21.0 °F 43% 30.04 in 10.0 mi South 13.8 mph - N/A   Clear
2:53 AM 44.1 °F 35.7 °F 21.0 °F 40% 30.00 in 10.0 mi South 20.7 mph 28.8 mph N/A   Clear
3:53 AM 43.0 °F 33.3 °F 21.0 °F 42% 29.96 in 10.0 mi South 25.3 mph 35.7 mph N/A   Clear
4:53 AM 42.1 °F 32.6 °F 21.9 °F 45% 29.92 in 10.0 mi South 23.0 mph 31.1 mph N/A   Clear
5:53 AM 42.1 °F 32.6 °F 21.9 °F 45% 29.92 in 10.0 mi South 23.0 mph 31.1 mph N/A   Clear
6:53 AM 44.1 °F 35.0 °F 21.9 °F 42% 29.91 in 10.0 mi South 24.2 mph 33.4 mph N/A   Clear
7:53 AM 45.0 °F 36.0 °F 23.0 °F 42% 29.94 in 10.0 mi South 25.3 mph 34.5 mph N/A   Overcast
8:53 AM 46.0 °F 37.6 °F 25.0 °F 44% 29.92 in 10.0 mi South 24.2 mph 33.4 mph N/A   Mostly Cloudy
9:53 AM 41.0 °F 30.0 °F 36.0 °F 82% 29.92 in 7.0 mi South 28.8 mph 42.6 mph 0.01 in Rain Rain
10:53 AM 39.9 °F 28.0 °F 37.0 °F 89% 29.90 in 5.0 mi South 32.2 mph 38.0 mph 0.04 in Rain Rain
11:53 AM 41.0 °F 29.8 °F 37.9 °F 89% 29.89 in 10.0 mi South 29.9 mph 39.1 mph 0.00 in Rain Light Rain
12:07 PM 42.8 °F 32.9 °F 39.2 °F 87% 29.86 in 9.0 mi South 26.5 mph 38.0 mph 0.00 in Rain Light Rain
12:22 PM 42.8 °F 32.7 °F 39.2 °F 87% 29.85 in 6.0 mi South 27.6 mph 34.5 mph 0.00 in Rain Light Rain
12:53 PM 43.0 °F 33.5 °F 41.0 °F 93% 29.83 in 6.0 mi South 24.2 mph 40.3 mph 0.00 in Rain Light Rain
1:41 PM 44.6 °F 34.6 °F 42.8 °F 93% 29.80 in 9.0 mi South 31.1 mph 39.1 mph 0.04 in Rain Light Rain
1:49 PM 44.6 °F 35.5 °F 42.8 °F 93% 29.80 in 9.0 mi South 25.3 mph 36.8 mph 0.04 in Rain Light Rain
1:53 PM 45.0 °F 35.6 °F 42.1 °F 90% 29.81 in 10.0 mi South 27.6 mph 34.5 mph 0.04 in Rain Light Rain
2:53 PM 46.0 °F 37.2 °F 43.0 °F 89% 29.75 in 9.0 mi South 26.5 mph 36.8 mph 0.00 in   Overcast
3:53 PM 48.9 °F - 45.0 °F 86% 29.70 in 9.0 mi South 31.1 mph 40.3 mph N/A   Overcast
4:44 PM 48.2 °F - 44.6 °F 87% 29.67 in 8.0 mi South 24.2 mph 34.5 mph N/A   Overcast
4:53 PM 48.9 °F - 44.1 °F 83% 29.66 in 8.0 mi South 24.2 mph 35.7 mph N/A   Overcast
5:41 PM 51.8 °F - 44.6 °F 76% 29.62 in 10.0 mi South 31.1 mph 40.3 mph N/A   Overcast
5:53 PM 50.0 °F - 45.0 °F 83% 29.61 in 10.0 mi South 32.2 mph 40.3 mph N/A   Overcast
6:21 PM 48.2 °F - 44.6 °F 87% 29.60 in 9.0 mi SSE 28.8 mph 40.3 mph N/A   Scattered Clouds
6:50 PM 48.2 °F - 44.6 °F 87% 29.59 in 9.0 mi South 35.7 mph 44.9 mph N/A   Mostly Cloudy
6:53 PM 48.9 °F - 45.0 °F 86% 29.58 in 9.0 mi South 33.4 mph 44.9 mph N/A   Mostly Cloudy
7:06 PM 48.2 °F - 44.6 °F 87% 29.59 in 8.0 mi South 35.7 mph 47.2 mph N/A   Overcast
7:53 PM 48.9 °F - 46.0 °F 90% 29.56 in 8.0 mi South 32.2 mph 44.9 mph N/A   Overcast
8:53 PM 50.0 °F - 46.9 °F 89% 29.56 in 8.0 mi South 34.5 mph 44.9 mph N/A   Overcast
9:43 PM 50.0 °F - 46.4 °F 87% 29.55 in 8.0 mi South 29.9 mph 42.6 mph N/A   Overcast
9:53 PM 50.0 °F - 46.9 °F 89% 29.55 in 9.0 mi South 31.1 mph 42.6 mph N/A   Overcast
10:13 PM 50.0 °F - 46.4 °F 87% 29.54 in 10.0 mi South 31.1 mph 41.4 mph N/A   Scattered Clouds
10:53 PM 51.1 °F - 46.9 °F 86% 29.52 in 10.0 mi South 34.5 mph 43.7 mph N/A   Clear
11:53 PM 54.0 °F - 48.9 °F 83% 29.50 in 10.0 mi South 33.4 mph 46.0 mph N/A   Partly Cloudy